Weather History for KBYG - May, 2013

Change the Weather History Date:

Monday, May 20, 2013

  Actual Average Record
Temperature  
Mean Temperature 49 °F 53 °F  
Max Temperature 55 °F 65 °F 83 °F (2005)
Min Temperature 42 °F 41 °F 28 °F (2003)
Degree Days  
Heating Degree Days 16 12  
Month to date heating degree days 221 290  
Since 1 July heating degree days 6926 7134  
Cooling Degree Days 0 0  
Month to date cooling degree days 10 0  
Year to date cooling degree days 10 0  
Moisture  
Dew Point 41 °F    
Average Humidity 67    
Maximum Humidity 93    
Minimum Humidity 41    
Precipitation  
Precipitation 0.35 in 0.10 in 0.56 in (2011)
Month to date precipitation 1.36 1.62  
Year to date precipitation 2.88 4.61  
Sea Level Pressure  
Sea Level Pressure 29.96 in    
Wind  
Wind Speed 31 mph (NNW)    
Max Wind Speed 40 mph    
Max Gust Speed 55 mph    
Visibility 9 miles    
Events Rain    
T = Trace of Precipitation, MM = Missing Value Source: NWS Daily Summary

Daily Weather History Graph

Daily Weather History Graph

Search for Another Location

Airport or City:

Trip Planner

Search our weather history database for the weather conditions in past years. The results will help you decide how hot, cold, wet, or windy it might be!

Date:

Astronomy

May. 20, 2013 Rise Set
Actual Time 5:34 AM MDT 8:33 PM MDT
Civil Twilight 4:59 AM MDT 9:07 PM MDT
Nautical Twilight 4:16 AM MDT 9:51 PM MDT
Astronomical Twilight 3:24 AM MDT 10:44 PM MDT
Moon 3:33 PM MDT (5/20) 2:42 AM MDT (5/20)
Length of Visible Light 16h 07m
Length of Day
14h 58m
Waxing Gibbous, 75% of the Moon is Illuminated
May 20
Waxing Gibbous
May 24
Full
May 31
Last Quarter
Jun 8
New
Jun 16
First Quarter

Hourly Weather History & Observations

Time (MDT) Temp. Windchill Dew Point Humidity Pressure Visibility Wind Dir Wind Speed Gust Speed Precip Events Conditions
12:34 AM 46.4 °F 37.9 °F 44.6 °F 93% 29.95 in 10.0 mi NNW 25.3 mph 39.1 mph 0.02 in Rain Light Rain
12:46 AM 46.4 °F 38.3 °F 44.6 °F 93% 29.95 in 9.0 mi NNW 23.0 mph 35.7 mph 0.03 in Rain Light Rain
12:53 AM 46.9 °F - 44.1 °F 90% 29.88 in 10.0 mi NNW 23.0 mph 34.5 mph 0.03 in Rain Light Rain
1:14 AM 46.4 °F 37.5 °F 44.6 °F 93% 29.94 in 10.0 mi NNW 27.6 mph 38.0 mph 0.00 in   Overcast
1:22 AM 46.4 °F 37.9 °F 44.6 °F 93% 29.94 in 10.0 mi NNW 25.3 mph 42.6 mph 0.00 in Rain Light Rain
1:30 AM 46.4 °F 37.9 °F 44.6 °F 93% 29.94 in 8.0 mi NNW 25.3 mph 39.1 mph 0.00 in Rain Light Rain
1:34 AM 46.4 °F 37.9 °F 44.6 °F 93% 29.94 in 10.0 mi NNW 25.3 mph 39.1 mph 0.00 in Rain Light Rain
1:42 AM 46.4 °F 37.7 °F 42.8 °F 87% 29.94 in 10.0 mi NNW 26.5 mph 38.0 mph 0.00 in Rain Light Rain
1:49 AM 46.4 °F 37.7 °F 42.8 °F 87% 29.94 in 10.0 mi NNW 26.5 mph 39.1 mph 0.00 in Rain Light Rain
2:00 AM 46.4 °F 37.7 °F 42.8 °F 87% 29.94 in 10.0 mi NNW 26.5 mph 40.3 mph N/A   Overcast
2:03 AM 46.4 °F 37.7 °F 42.8 °F 87% 29.94 in 10.0 mi NNW 26.5 mph 40.3 mph N/A   Overcast
2:53 AM 46.0 °F 37.0 °F 43.0 °F 89% 29.88 in 6.0 mi NNW 27.6 mph 41.4 mph 0.03 in Rain Light Rain
3:41 AM 44.6 °F 34.2 °F 42.8 °F 93% 29.95 in 5.0 mi NNW 33.4 mph 43.7 mph 0.06 in Rain Rain
3:53 AM 45.0 °F 34.6 °F 39.9 °F 82% 29.89 in 4.0 mi NNW 34.5 mph 49.5 mph 0.07 in Rain Light Rain
4:02 AM 44.6 °F 34.1 °F 41.0 °F 87% 29.95 in 7.0 mi NNW 34.5 mph 49.5 mph 0.01 in Rain Light Rain
4:42 AM 44.6 °F 35.1 °F 41.0 °F 87% 29.96 in 8.0 mi NNW 27.6 mph 42.6 mph 0.05 in Rain Light Rain
5:10 AM 44.6 °F 34.9 °F 41.0 °F 87% 29.97 in 6.0 mi NNW 28.8 mph 44.9 mph 0.01 in Rain Light Rain
5:25 AM 44.6 °F 34.7 °F 41.0 °F 87% 29.97 in 6.0 mi NNW 29.9 mph 42.6 mph 0.03 in Rain Rain
6:43 AM 44.6 °F 34.9 °F 41.0 °F 87% 29.97 in 10.0 mi NNW 28.8 mph 42.6 mph 0.02 in Rain Light Rain
6:53 AM 45.0 °F 35.4 °F 41.0 °F 86% 29.93 in 8.0 mi NNW 28.8 mph 40.3 mph 0.03 in Rain Light Rain
7:06 AM 44.6 °F 35.5 °F 42.8 °F 93% 29.98 in 10.0 mi NNW 25.3 mph 39.1 mph 0.00 in Rain Light Rain
7:19 AM 44.6 °F 35.3 °F 41.0 °F 87% 29.98 in 10.0 mi NW 26.5 mph 36.8 mph 0.00 in Rain Light Rain
7:23 AM 44.6 °F 35.9 °F 41.0 °F 87% 29.98 in 10.0 mi NW 23.0 mph 40.3 mph 0.01 in Rain Light Rain
7:53 AM 46.0 °F 35.8 °F 41.0 °F 83% 29.93 in 10.0 mi NNW 36.8 mph 51.8 mph 0.02 in Rain Light Rain
8:08 AM 46.4 °F 36.9 °F 41.0 °F 81% 29.98 in 6.0 mi NNW 32.2 mph 48.3 mph 0.01 in Rain Light Rain
8:53 AM 46.9 °F - 43.0 °F 86% 29.94 in 8.0 mi NNW 31.1 mph 44.9 mph 0.02 in Rain Light Rain
9:13 AM 46.4 °F 37.0 °F 42.8 °F 87% 29.99 in 4.0 mi NNW 31.1 mph 49.5 mph 0.01 in Rain Light Rain
9:20 AM 46.4 °F 36.5 °F 42.8 °F 87% 29.99 in 6.0 mi NNW 34.5 mph 51.8 mph 0.01 in Rain Light Rain
9:53 AM 48.0 °F - 42.1 °F 80% 29.95 in 10.0 mi NNW 31.1 mph 46.0 mph 0.01 in Rain Light Rain
10:53 AM 46.0 °F 36.9 °F 41.0 °F 83% 29.96 in 6.0 mi NNW 28.8 mph 40.3 mph 0.01 in Rain Light Rain
12:53 PM 52.0 °F - 37.0 °F 57% 29.94 in 10.0 mi NNW 39.1 mph 52.9 mph 0.00 in   Overcast
1:53 PM 52.0 °F - 35.1 °F 53% 29.94 in 10.0 mi NNW 29.9 mph 50.6 mph N/A   Scattered Clouds
2:53 PM 53.1 °F - 30.9 °F 43% 29.94 in 10.0 mi NNW 40.3 mph 54.1 mph N/A   Clear
3:53 PM 54.0 °F - 35.1 °F 49% 29.95 in 10.0 mi NNW 27.6 mph 43.7 mph N/A   Mostly Cloudy
4:53 PM 51.1 °F - 36.0 °F 56% 29.98 in 10.0 mi North 33.4 mph 49.5 mph 0.00 in Rain Light Rain
5:53 PM 50.0 °F - 37.9 °F 63% 29.99 in 10.0 mi North 31.1 mph 42.6 mph 0.00 in   Mostly Cloudy
6:53 PM 48.0 °F - 37.9 °F 68% 30.02 in 10.0 mi NNW 27.6 mph 40.3 mph N/A   Overcast
8:53 PM 43.0 °F 33.3 °F 39.0 °F 86% 30.07 in 10.0 mi NNW 25.3 mph 40.3 mph 0.00 in Rain Light Rain
9:53 PM 43.0 °F 32.9 °F 37.0 °F 80% 30.08 in 10.0 mi NNW 27.6 mph 42.6 mph 0.01 in Rain Light Rain
10:53 PM 44.1 °F 35.0 °F 36.0 °F 73% 30.08 in 10.0 mi NW 24.2 mph 35.7 mph 0.00 in   Overcast
11:53 PM 44.1 °F 36.8 °F 37.9 °F 79% 30.08 in 10.0 mi NNW 16.1 mph 27.6 mph 0.00 in   Overcast